Probability
0 0 0 0 0 0 0 0 0 0 0 0 0 0 0 0 0 0 0 0 0 0 0 0 0 0 0 0 0 0 0 0 0 0 0 0 0 0 0 0 0 0 0
0 0 0 0 0 0 0 0 0 0 0 0 0 0 0 0 0 0 0 0 0 0 0 0 0 0 0 0 0 0 0 0 0 0 0 0 0 0 0 0 0 0 0
0 0 0 0 0 0 0 0 0 0 0 0 0 0 0 0 0 0 0 0 0 0 0 0 0 0 0 0 0 0 0 0 0 0 0 0 0 0 0 0 0 0 0
0 0 0 0 0 0 0 0 0 0 0 0 0 0 0 0 0 0 0 0 0 0 0 0 0 0 0 0 0 0 0 0 0 0 0 0 0 0 0 0 0 0 0
0 0 0 0 0 0 0 0 0 0 0 0 0 0 0 0 0 0 0 0 0 0 0 0 0 0 0 0 0 0 0 0 0 0 0 0 0 0 0 0 0 0 0
0 0 0 0 0 0 0 0 0 0 0 0 0 0 0 0 0 0 0 0 0 0 0 0 0 0 0 0 0 0 0 0 0 0 0 0 0 0 0 0 0 0 0
0 0 0 0 0 0 0 0 0 0 0 0 0 0 0 0 0 0 0 0 0 0 0 0 0 0 0 0 0 0 0 0 0 0 0 0 0 0 0 0 0 0 0
0 0 0 0 0 0 0 0 0 0 0 0 0 0 0 0 0 0 0 0 0 0 0 0 0 0 0 0 0 0 0 0 0 0 0 0 0 0 0 0 0 0 0
0 0 0 0 0 0 0 0 0 0 0 0 0 0 0 0 0 0 0 0 0 0 0 0 0 0 0 0 0 0 0 0 0 0 0 0 0 0 0 0 0 0 0
0 0 0 0 0 0 0 0 0 0 0 0 0 0 0 0 0 0 0 0 0 0 0 0 0 0 0 0 0 0 0 0 0 0 0 0 0 0 0 0 0 0 0
0 0 0 0 0 0 0 0 0 0 0 0 0 0 0 0 0 0 0 0 0 0 0 0 0 0 0 0 0 0 0 0 0 0 0 0 0 0 0 0 0 0 0
0 0 0 0 0 0 0 0 0 0 0 0 0 0 0 0 0 0 0 0 0 0 0 0 0 0 0 0 0 0 0 0 0 0 0 0 0 0 0 0 0 0 0
0 0 0 0 0 0 0 0 0 0 0 0 0 0 0 0 0 0 0 0 0 0 0 0 0 0 0 0 0 0 0 0 0 0 0 0 0 0 0 0 0 0 0
0 0 0 0 0 0 0 0 0 0 0 0 0 0 0 0 0 0 0 0 0 0 0 0 0 0 0 0 0 0 0 0 0 0 0 0 0 0 0 0 0 0 0
0 0 0 0 0 0 0 0 0 0 0 0 0 0 0 0 0 0 0 0 0 0 0 0 0 0 0 0 0 0 0 0 0 0 0 0 0 0 0 0 0 0 0
0 0 0 0 0 0 0 0 0 0 0 0 0 0 0 0 0 0 0 0 0 0 0 0 0 0 0 0 0 0 0 0 0 0 0 0 0 0 0 0 0 0 0
0 0 0 0 0 0 0 0 0 0 0 0 0 0 0 0 0 0 0 0 0 0 0 0 0 0 0 0 0 0 0 0 0 0 0 0 0 0 0 0 0 0 0
0 0 0 0 0 0 0 0 0 0 0 0 0 0 0 0 0 0 0 0 0 0 0 0 0 0 0 0 0 0 0 0 0 0 0 0 0 0 0 0 0 0 0
0 0 0 0 0 0 0 0 0 0 0 0 0 0 0 0 0 0 0 0 0 0 0 0 0 0 0 0 0 0 0 0 0 0 0 0 0 0 0 0 0 0 0
0 0 0 0 0 0 0 0 0 0 0 0 0 0 0 0 0 0 0 0 0 0 0 0 0 0 0 0 0 0 0 0 0 0 0 0 0 0 0 0 0 0 0
0 0 0 0 0 0 0 0 0 0 0 0 0 0 0 0 0 0 0 0 0 0 0 0 0 0 0 0 0 0 0 0 0 0 0 0 0 0 0 0 0 0 0
0 0 0 0 0 0 0 0 0 0 0 0 0 0 0 0 0 0 0 0 0 0 0 0 0 0 0 0 0 0 0 0 0 0 0 0 0 0 0 0 0 0 0
0 0 0 0 0 0 0 0 0 0 0 0 0 0 0 0 0 0 0 0 0 0 0 0 0 0 0 0 0 0 0 0 0 0 0 0 0 0 0 0 0 0 0
0 0 0 0 0 0 0 0 0 0 0 0 0 0 0 0 0 0 0 0 0 0 0 0 0 0 0 0 0 0 0 0 0 0 0 0 0 0 0 0 0 0 0
0 0 0 0 0 0 0 0 0 0 0 0 0 0 0 0 0 0 0 0 0 0 0 0 0 0 0 0 0 0 0 0 0 0 0 0 0 0 0 0 0 0 0
0 0 0 0 0 0 0 0 0 0 0 0 0 0 0 0 0 0 0 0 0 0 0 0 0 0 0 0 0 0 0 0 0 0 0 0 0 0 0 0 0 0 0
Height
5765 5768 5770 5772 5774 5775 5777 5778 5779 5780 5781 5781 5781 5781 5782 5782 5782 5781 5781 5780 5778 5776 5775 5773 5772 5771 5769 5767 5765 5764 5762 5761 5759 5757 5756 5754 5752 5750 5748 5746 5745 5743 5741
5760 5762 5764 5766 5768 5769 5771 5772 5773 5774 5774 5774 5774 5774 5775 5775 5774 5774 5773 5772 5770 5769 5767 5766 5764 5763 5762 5760 5758 5756 5755 5753 5751 5749 5747 5746 5744 5742 5739 5737 5735 5733 5732
5754 5756 5758 5760 5761 5763 5764 5765 5766 5767 5767 5767 5767 5768 5767 5767 5767 5766 5765 5764 5763 5761 5760 5758 5757 5755 5754 5752 5750 5748 5746 5744 5742 5740 5738 5736 5734 5732 5730 5727 5725 5723 5721
5749 5750 5752 5754 5755 5756 5757 5758 5759 5760 5760 5760 5760 5760 5759 5759 5759 5758 5757 5756 5755 5753 5752 5751 5749 5747 5746 5744 5742 5739 5737 5735 5733 5731 5728 5726 5724 5722 5720 5718 5714 5712 5710
5744 5745 5746 5748 5749 5750 5751 5752 5752 5752 5753 5753 5753 5752 5752 5751 5750 5750 5749 5748 5747 5746 5744 5742 5741 5739 5737 5735 5732 5730 5728 5725 5723 5720 5718 5715 5713 5710 5708 5707 5704 5701 5698
5738 5739 5740 5741 5742 5743 5744 5745 5745 5745 5745 5745 5745 5745 5744 5743 5742 5742 5741 5740 5739 5737 5735 5733 5731 5729 5727 5725 5723 5720 5717 5715 5712 5709 5707 5704 5701 5698 5696 5694 5692 5689 5686
5733 5734 5734 5735 5736 5737 5737 5738 5738 5738 5738 5738 5737 5737 5736 5735 5734 5734 5733 5732 5730 5729 5727 5725 5722 5720 5717 5715 5712 5710 5707 5704 5701 5698 5695 5692 5689 5686 5683 5681 5678 5676 5674
5728 5728 5729 5729 5730 5730 5731 5731 5731 5731 5730 5730 5730 5729 5728 5727 5726 5725 5724 5723 5721 5719 5717 5715 5712 5710 5707 5704 5701 5698 5695 5692 5689 5685 5682 5679 5676 5672 5670 5667 5664 5662 5660
5723 5723 5723 5724 5724 5724 5724 5724 5723 5723 5723 5722 5722 5721 5720 5719 5718 5717 5715 5713 5712 5709 5707 5705 5702 5699 5696 5693 5690 5686 5683 5679 5676 5672 5669 5666 5662 5659 5656 5652 5649 5647 5645
5718 5718 5718 5718 5718 5717 5717 5717 5716 5716 5715 5715 5714 5713 5711 5710 5709 5707 5705 5703 5701 5699 5697 5694 5691 5688 5684 5681 5678 5674 5670 5666 5663 5659 5655 5652 5648 5645 5641 5638 5635 5631 5629
5713 5712 5712 5712 5711 5711 5710 5710 5709 5709 5708 5707 5706 5704 5703 5701 5700 5698 5695 5693 5691 5688 5686 5683 5680 5676 5672 5669 5665 5661 5657 5653 5649 5645 5641 5638 5634 5630 5627 5623 5620 5617 5614
5707 5706 5706 5705 5705 5704 5703 5702 5702 5701 5700 5699 5697 5695 5694 5692 5690 5687 5685 5682 5679 5677 5674 5671 5668 5664 5660 5656 5652 5648 5644 5640 5636 5631 5627 5623 5619 5616 5612 5609 5605 5602 5599
5701 5700 5699 5698 5698 5697 5696 5695 5694 5693 5691 5690 5688 5686 5684 5682 5679 5677 5674 5671 5668 5665 5662 5659 5655 5651 5647 5643 5639 5635 5630 5626 5622 5617 5613 5609 5605 5601 5597 5594 5591 5588 5585
5694 5693 5692 5691 5690 5689 5688 5687 5685 5684 5682 5680 5678 5676 5673 5671 5668 5665 5662 5659 5656 5653 5649 5646 5642 5638 5634 5630 5625 5621 5617 5612 5607 5603 5599 5594 5590 5587 5583 5580 5576 5573 5570
5688 5686 5685 5684 5682 5681 5679 5678 5676 5674 5672 5670 5668 5665 5663 5660 5657 5654 5650 5647 5643 5640 5636 5632 5628 5624 5620 5615 5611 5606 5602 5597 5593 5588 5584 5579 5575 5572 5568 5565 5562 5559 5556
5680 5679 5677 5676 5674 5672 5670 5668 5666 5664 5662 5659 5657 5654 5651 5648 5645 5641 5638 5634 5630 5626 5622 5618 5614 5610 5605 5600 5596 5591 5587 5583 5578 5573 5569 5564 5560 5557 5553 5550 5547 5545 5542
5672 5670 5669 5667 5665 5662 5660 5658 5656 5653 5651 5648 5645 5642 5639 5636 5632 5628 5624 5620 5616 5612 5608 5604 5599 5595 5590 5585 5580 5576 5572 5567 5562 5558 5554 5550 5546 5542 5539 5536 5533 5531 5528
5663 5661 5659 5657 5655 5652 5650 5647 5645 5642 5639 5636 5632 5629 5626 5622 5619 5615 5610 5606 5602 5598 5593 5589 5584 5580 5575 5570 5565 5560 5556 5552 5547 5543 5538 5535 5531 5528 5525 5522 5519 5517 5514
5653 5651 5649 5647 5644 5642 5639 5636 5633 5630 5626 5623 5619 5616 5612 5608 5604 5600 5596 5591 5587 5583 5578 5574 5569 5565 5560 5554 5549 5545 5541 5537 5533 5528 5524 5521 5517 5514 5510 5508 5506 5503 5501
5643 5641 5638 5635 5633 5630 5627 5624 5621 5617 5613 5610 5606 5602 5598 5594 5590 5585 5581 5576 5571 5567 5563 5558 5553 5548 5544 5539 5534 5529 5525 5522 5518 5515 5511 5507 5503 5500 5496 5494 5492 5490 5488
5632 5630 5627 5624 5621 5617 5614 5611 5608 5604 5600 5596 5592 5588 5583 5579 5574 5570 5565 5560 5556 5552 5547 5543 5538 5532 5527 5523 5518 5513 5510 5507 5503 5500 5497 5493 5489 5486 5483 5481 5478 5476 5474
5621 5618 5615 5612 5608 5604 5601 5598 5594 5590 5587 5583 5578 5574 5569 5563 5558 5554 5549 5544 5539 5535 5530 5526 5522 5516 5511 5507 5503 5498 5495 5491 5489 5486 5482 5479 5476 5473 5470 5468 5465 5463 5461
5608 5605 5602 5599 5595 5591 5587 5584 5580 5576 5572 5568 5563 5558 5553 5548 5543 5538 5533 5528 5523 5518 5514 5509 5505 5501 5497 5492 5488 5484 5480 5476 5474 5471 5468 5465 5463 5460 5458 5455 5453 5451 5449
5595 5592 5588 5585 5581 5577 5573 5569 5565 5561 5557 5553 5548 5543 5538 5533 5527 5522 5516 5511 5506 5501 5497 5492 5488 5485 5482 5477 5473 5470 5466 5463 5459 5457 5455 5452 5450 5447 5445 5443 5441 5439 5437
5582 5578 5575 5571 5567 5563 5559 5554 5550 5546 5542 5537 5533 5527 5522 5517 5512 5507 5501 5495 5490 5484 5480 5476 5472 5469 5466 5462 5458 5455 5452 5449 5446 5443 5441 5439 5437 5435 5433 5431 5429 5427 5425
5568 5564 5560 5556 5552 5548 5544 5539 5535 5530 5526 5522 5517 5512 5506 5501 5496 5491 5486 5480 5474 5470 5464 5460 5456 5453 5450 5446 5443 5440 5437 5434 5432 5430 5428 5426 5424 5422 5420 5419 5417 5415 5413
Wind_Speed
30 30 30 30 29 29 29 30 31 31 31 31 32 32 32 32 33 32 33 33 34 35 34 33 33 33 34 34 33 33 33 34 34 35 35 35 36 36 37 37 37 37 38
28 30 31 31 31 30 30 31 31 32 33 33 33 32 33 34 34 34 35 35 35 35 34 33 33 34 34 34 34 35 36 36 37 37 37 37 37 38 39 39 39 39 39
28 29 29 31 32 32 32 32 33 33 34 34 34 34 35 35 35 36 36 35 35 34 34 34 34 35 35 36 36 37 38 38 39 39 40 40 40 40 40 41 41 41 41
28 29 29 30 32 33 33 33 33 33 33 34 34 35 36 36 36 36 36 35 35 35 35 35 36 36 36 37 37 37 38 39 40 41 41 42 43 42 42 43 43 44 44
27 28 30 30 32 32 33 34 34 34 34 34 35 35 36 36 36 37 35 35 36 36 36 36 37 38 38 39 40 40 41 41 42 42 43 43 44 44 44 44 45 45 46
26 27 29 30 31 31 32 32 33 33 34 34 34 35 36 36 36 35 34 34 35 35 36 37 38 39 40 41 41 42 43 44 44 44 45 45 46 46 47 47 47 47 48
26 27 28 29 30 30 31 31 32 33 33 33 34 34 34 34 34 34 34 35 35 36 37 39 39 40 41 42 43 44 45 46 46 47 47 48 48 49 49 49 49 50 50
25 26 27 28 29 30 31 32 33 33 33 33 33 33 34 34 34 34 36 37 38 39 40 41 41 42 43 44 45 47 47 48 49 49 49 50 50 50 51 51 52 52 51
25 26 27 28 29 30 31 32 32 32 32 33 33 34 35 35 36 37 38 39 40 41 42 42 43 44 45 46 47 48 48 49 50 50 50 51 51 52 52 53 53 53 52
25 27 28 28 29 29 29 30 31 32 32 33 34 35 36 37 38 39 40 41 42 42 43 44 44 45 47 48 49 49 50 51 51 51 52 52 53 53 54 54 54 54 54
25 26 27 28 29 30 30 31 31 32 33 34 35 36 38 38 39 40 41 42 42 43 44 45 46 47 48 49 50 51 51 52 52 52 52 53 53 54 54 55 54 54 54
25 26 27 28 29 30 31 31 32 33 34 35 36 37 38 39 40 41 42 43 44 44 45 46 47 48 49 50 51 51 51 52 52 53 53 54 54 55 55 54 53 53 53
27 28 28 29 30 31 32 33 33 35 36 37 38 39 40 41 42 43 43 44 45 46 47 47 48 50 51 51 52 52 52 53 53 54 54 55 55 55 54 54 53 53 53
29 29 30 31 31 32 33 34 35 36 38 39 40 42 43 44 44 44 45 46 47 48 49 50 51 51 52 53 54 54 54 54 55 55 55 55 55 54 54 53 52 52 51
30 30 31 32 32 33 34 36 37 38 39 41 42 43 45 46 46 46 47 48 49 51 51 52 53 54 54 55 56 56 56 56 55 56 55 55 55 54 53 52 51 51 50
30 31 32 32 33 34 36 37 38 40 41 42 43 44 45 46 47 47 49 50 51 52 53 53 54 55 56 56 57 57 56 56 55 55 55 55 54 53 52 51 50 50 49
32 33 34 35 36 37 38 40 41 42 43 44 45 46 47 48 48 49 51 51 52 53 54 55 55 56 56 57 57 57 57 55 54 54 54 53 52 51 51 50 50 49 48
34 35 36 37 38 39 40 42 43 44 45 45 46 47 48 49 50 51 52 53 54 55 56 56 56 56 57 57 58 57 56 55 53 53 52 51 50 49 49 49 48 48 47
36 37 39 40 41 42 43 44 45 46 47 47 48 49 50 51 52 54 55 55 56 56 57 57 57 57 57 58 58 57 55 53 52 51 50 49 48 48 48 47 46 46 46
39 40 41 42 43 44 45 46 47 48 48 49 50 51 53 54 55 56 56 57 57 57 57 57 58 58 58 58 57 56 54 52 51 50 49 48 47 46 46 46 45 45 44
41 42 43 44 46 47 47 48 49 49 50 51 52 53 54 55 56 57 57 58 58 57 58 58 58 58 58 57 56 55 53 52 50 49 48 47 46 45 45 45 44 44 43
44 45 46 47 48 49 49 50 51 51 52 53 54 55 56 56 57 57 57 58 58 58 58 59 58 58 57 55 54 53 52 51 49 47 46 45 44 44 43 43 42 42 42
46 47 48 49 49 50 51 52 53 53 54 55 56 56 57 57 58 58 58 58 58 58 59 59 58 56 54 53 53 52 51 49 48 46 45 44 43 42 41 41 41 41 41
49 50 50 51 51 52 53 54 55 55 56 56 56 57 57 58 58 58 58 58 58 58 57 57 56 54 52 51 51 50 49 48 46 45 44 42 42 42 41 40 40 40 40
51 51 52 52 53 54 55 55 56 56 56 56 56 57 57 58 57 57 57 57 57 57 56 56 55 53 52 51 50 49 47 46 44 43 43 42 42 41 41 40 40 39 39
52 53 53 53 54 54 55 55 56 56 56 56 56 57 57 57 56 56 56 56 56 55 55 54 54 53 51 50 48 47 46 45 44 43 42 42 41 41 41 40 40 39 38
Wind_Direction
241 243 245 248 250 252 253 254 256 258 262 266 269 269 270 272 274 276 278 281 284 285 287 288 287 287 288 288 289 289 290 291 291 291 291 290 289 287 286 285 285 285 285
244 244 247 250 252 254 255 257 258 261 264 266 269 270 272 274 275 277 280 281 284 285 285 286 287 288 288 288 288 289 290 290 291 291 290 290 289 288 287 286 285 284 284
245 248 250 251 252 254 256 259 261 263 265 266 268 270 273 274 276 278 281 282 284 285 285 286 287 287 287 288 289 289 289 290 290 290 289 289 289 288 288 287 286 284 284
249 251 253 254 256 257 259 261 262 263 265 267 270 273 275 276 277 279 281 282 283 285 285 286 287 287 288 289 290 291 291 291 290 290 289 289 289 289 288 288 286 285 283
252 254 256 257 259 260 261 264 265 265 266 269 272 274 277 277 278 279 280 281 282 284 285 287 287 288 289 291 292 291 291 292 291 290 290 290 289 288 288 287 287 286 285
255 257 258 260 261 262 263 265 267 267 268 271 272 274 277 278 279 278 279 281 284 286 287 288 289 290 291 292 292 292 292 292 291 291 290 290 289 288 288 287 286 286 285
257 259 260 261 262 263 265 266 268 269 271 272 273 275 278 278 277 278 279 281 284 286 288 289 290 291 292 292 292 292 292 291 291 290 289 289 289 289 288 288 287 286 285
260 262 262 262 263 264 266 267 269 271 272 273 274 275 276 277 277 278 279 281 284 286 288 288 290 290 291 292 292 292 292 292 291 290 289 289 288 288 288 288 288 287 286
262 264 265 264 265 267 267 267 269 270 271 272 274 276 276 277 278 280 281 282 285 287 288 289 290 291 292 292 293 293 292 293 291 290 289 289 288 288 288 288 287 287 286
266 266 266 267 268 268 267 267 270 271 272 273 275 277 278 279 280 281 282 284 286 288 289 290 291 292 292 293 293 293 293 293 292 290 290 289 288 288 288 288 288 287 286
269 269 270 271 271 271 270 269 271 273 275 276 276 278 279 280 282 283 283 285 288 289 290 290 291 292 292 293 294 294 294 293 292 291 290 289 289 289 289 288 288 287 286
272 273 274 274 273 273 272 271 272 273 275 275 276 279 280 282 283 285 286 287 288 289 290 290 291 292 293 294 295 295 294 294 293 292 291 291 291 290 289 289 288 287 287
275 275 275 276 275 275 273 273 274 276 277 279 280 282 283 284 285 286 287 288 289 289 290 291 292 293 293 293 294 294 295 295 294 293 292 291 290 290 289 289 288 288 287
275 276 276 277 277 277 276 275 277 278 280 282 283 283 284 286 287 287 288 289 289 290 291 291 292 292 293 293 294 294 295 295 294 293 292 291 290 290 289 289 289 288 287
277 277 277 278 278 278 279 279 279 281 282 283 284 285 286 288 288 289 290 290 290 291 292 292 292 293 293 294 295 295 296 295 294 293 292 291 290 290 289 289 288 287 287
279 279 279 279 279 280 280 281 281 281 283 284 285 286 288 288 289 290 291 292 292 292 292 293 293 294 294 295 296 296 296 295 294 293 292 291 290 289 289 289 288 287 287
281 281 281 282 282 282 282 283 284 284 284 285 286 287 287 288 289 290 291 292 292 293 293 293 294 294 295 296 296 297 296 295 294 293 292 290 289 288 288 288 288 287 287
283 283 283 283 283 284 284 285 285 285 286 287 288 288 289 289 290 291 292 292 293 294 294 293 293 294 295 296 296 296 296 295 294 293 292 290 289 288 288 288 287 287 286
284 285 285 285 285 286 286 287 287 287 288 289 289 290 290 290 291 292 293 293 294 294 294 294 293 294 295 296 296 296 295 295 293 293 292 290 289 288 287 287 287 286 286
286 286 286 286 287 287 287 288 288 289 289 290 290 291 291 292 292 293 294 294 294 294 294 294 294 294 295 295 295 295 294 294 293 292 292 290 289 288 287 287 286 286 286
287 287 287 287 288 288 288 288 289 290 290 291 292 293 293 293 294 294 294 294 294 294 294 293 293 294 294 294 294 293 293 293 292 292 291 289 288 288 287 287 286 285 285
288 288 288 288 288 289 289 290 290 291 291 292 293 294 294 295 295 295 295 295 294 294 293 293 293 293 294 294 294 293 293 292 292 291 290 289 288 288 287 287 286 285 285
288 288 289 289 290 290 290 290 291 291 292 293 293 294 295 295 295 295 295 295 295 294 294 293 293 293 293 294 294 293 293 292 291 290 289 288 287 287 287 287 287 287 286
289 289 289 290 290 290 291 291 291 292 292 293 294 295 295 296 296 296 296 296 295 295 294 294 294 293 293 293 293 293 292 291 289 289 288 288 287 286 285 286 286 287 287
289 289 290 290 290 290 291 291 292 292 293 293 294 295 296 296 296 296 296 296 296 296 295 295 294 293 293 293 293 293 292 290 289 288 288 286 285 284 284 285 285 286 286
289 289 290 290 291 291 292 292 293 293 294 294 295 296 296 296 297 297 297 297 296 296 296 295 294 293 293 293 293 292 291 289 288 287 287 286 285 284 284 283 284 284 285